User: anonymous   Login
Location: Bush Observatory
(40.2653°N, 94.3194°W)
Time: 15:20:29
(UTC-05:00)
Language:

Cosmos 1933 Rocket - Orbit

View from above orbital plane
View from above orbital plane
View from above satellite
View from above satellite

Ground track
Ground track

The orbit data is extracted from the following two-line orbital elements,

1 18959U 88020B   15125.53307480  .00000307  00000-0  34728-4 0  9992
2 18959 082.5364 273.6276 0017405 163.5776 269.7200 14.83112473465901
Epoch (UTC): 05 May 2015 12:47:37
Eccentricity: 0.0017405
inclination: 82.5364°
perigee height: 607 km
apogee height: 632 km
right ascension of ascending node: 273.6276°
argument of perigee: 163.5776°
revolutions per day: 14.83112473
mean anomaly at epoch: 269.7200°
orbit number at epoch: 46590

The dashed part of the orbit path shows where the satellite is in the earth's shadow,  

DLR